Weather Roundup
Issued by NWS Springfield, MO

Home | Current Version | Previous Version | Text Only | Print | Product List | Glossary On
Versions: 1 2 3 4 5 6 7 8 9 10 11 12 13 14 15 16 17 18 19 20 21 22 23 24 25 26 27 28 29 30 31 32 33 34 35 36 37 38 39 40 41 42 43 44 45 46 47 48 49 50
000
NZUS99 KSGF 212057
HRRSGF

HOURLY WEATHER
NATIONAL WEATHER SERVICE SPRINGFIELD MO
300 PM CST TUE NOV 21 2017

......SGF CWA......

CITY           SKY/WX    TMP DP  RH WIND       PRES   REMARKS
SPRINGFIELD    SUNNY     57  34  41 N17       30.05R
JOPLIN         SUNNY     57  35  43 N20G29    30.09R
ROLLA          CLOUDY    53  32  44 N14G23    30.04R

......SURROUNDING SGF CWA......

CITY           SKY/WX    TMP DP  RH WIND       PRES   REMARKS
CHANUTE        SUNNY     54  28  36 N14G24    30.16R
PARSONS        SUNNY     57  31  37 N16G26    30.14R
COFFEYVILLE    SUNNY     59  35  40 N20G30    30.12R
EMPORIA        SUNNY     50  14  23 N24G31    30.20R
HARRISON AR    SUNNY     59  35  40 NW10      30.01R

......KANSAS AND MISSOURI......

CITY           SKY/WX    TMP DP  RH WIND       PRES   REMARKS
KANSAS CTY INT SUNNY     44  14  29 NW21G29   30.19R
SEDALIA        SUNNY     52  19  27 N20G26    30.12R
ST JOSEPH      SUNNY     40  15  36 NW20G30   30.24R WCI  30
ST LOUIS       CLOUDY    50  29  44 NW15      30.03R
WICHITA        SUNNY     52  26  36 N24G35    30.20R
TOPEKA         SUNNY     46  10  23 NW22G30   30.23R
OLATHE         SUNNY     47  10  22 N18G25    30.17R

......TENNESSEE......

CITY           SKY/WX    TMP DP  RH WIND       PRES   REMARKS
MEMPHIS        NOT AVBL
NASHVILLE      PTSUNNY   60  28  29 SW7       30.00F

......ARKANSAS.......

CITY           SKY/WX    TMP DP  RH WIND       PRES   REMARKS
FAYETTEVILLE   SUNNY     59  38  45 N9        30.03R
FT SMITH       CLOUDY    62  43  49 NW3       30.00R
LITTLE ROCK    PTSUNNY   61  46  57 S6        29.99F

......OKLAHOMA.......

CITY           SKY/WX    TMP DP  RH WIND       PRES   REMARKS
TULSA          MOSUNNY   61  33  35 N20G28    30.07R
PONCA CITY     SUNNY     60  30  32 N28G36    30.12R
MCALESTER      SUNNY     67  45  45 N13       30.00R
OKLAHOMA CITY  MOSUNNY   61  29  29 N22G32    30.07R

......IOWA............

CITY           SKY/WX    TMP DP  RH WIND       PRES   REMARKS
DES MOINES     NOT AVBL
QUAD CITIES    SUNNY     36  18  48 NW18G28   30.06R WCI  26

......ILLINOIS........

CITY           SKY/WX    TMP DP  RH WIND       PRES   REMARKS
QUINCY         PTSUNNY   41  21  44 NW23      30.08R
CHICAGO        CLOUDY    37  19  48 NW23      29.95R WCI  26




USA.gov is the U.S. government's official web portal to all federal, state and local government web resources and services.